Year,Month,Day,Hour,Minute,Value (Times are PST for temperature in C)
2002,04,03,00,00,4.50
2002,04,03,00,01,4.60
2002,04,03,00,02,4.60
2002,04,03,00,03,4.60
2002,04,03,00,04,4.70
2002,04,03,00,05,4.70
2002,04,03,00,06,4.80
2002,04,03,00,07,4.80
2002,04,03,00,08,4.80
2002,04,03,00,09,4.90
2002,04,03,00,10,4.90
2002,04,03,00,11,4.90
2002,04,03,00,12,4.90
2002,04,03,00,13,4.90
2002,04,03,00,14,4.90
2002,04,03,00,15,4.90
2002,04,03,00,16,4.90
2002,04,03,00,17,4.90
2002,04,03,00,18,4.80
2002,04,03,00,19,4.80
2002,04,03,00,20,4.70
2002,04,03,00,21,4.70
2002,04,03,00,22,4.70
2002,04,03,00,23,4.60
2002,04,03,00,24,4.60
2002,04,03,00,25,4.50
2002,04,03,00,26,4.50
2002,04,03,00,27,4.40
2002,04,03,00,28,4.30
2002,04,03,00,29,4.20
2002,04,03,00,30,4.20
2002,04,03,00,31,4.20
2002,04,03,00,32,4.20
2002,04,03,00,33,4.20
2002,04,03,00,34,4.20
2002,04,03,00,35,4.20
2002,04,03,00,36,4.10
2002,04,03,00,37,4.10
2002,04,03,00,38,4.00
2002,04,03,00,39,4.00
2002,04,03,00,40,4.00
2002,04,03,00,41,3.90
2002,04,03,00,42,3.90
2002,04,03,00,43,3.80
2002,04,03,00,44,3.80
2002,04,03,00,45,3.80
2002,04,03,00,46,3.80
2002,04,03,00,47,3.80
2002,04,03,00,48,3.70
2002,04,03,00,49,3.70
2002,04,03,00,50,3.60
2002,04,03,00,51,3.50
2002,04,03,00,52,3.50
2002,04,03,00,53,3.50
2002,04,03,00,54,3.40
2002,04,03,00,55,3.40
2002,04,03,00,56,3.40
2002,04,03,00,57,3.40
2002,04,03,00,58,3.40
2002,04,03,00,59,3.40
2002,04,03,01,00,3.40
2002,04,03,01,01,3.30
2002,04,03,01,02,3.30
2002,04,03,01,03,3.30
2002,04,03,01,04,3.30
2002,04,03,01,05,3.30
2002,04,03,01,06,3.30
2002,04,03,01,07,3.30
2002,04,03,01,08,3.20
2002,04,03,01,09,3.20
2002,04,03,01,10,3.20
2002,04,03,01,11,3.20
2002,04,03,01,12,3.30
2002,04,03,01,13,3.30
2002,04,03,01,14,3.30
2002,04,03,01,15,3.30
2002,04,03,01,16,3.30
2002,04,03,01,17,3.30
2002,04,03,01,18,3.30
2002,04,03,01,19,3.30
2002,04,03,01,20,3.30
2002,04,03,01,21,3.20
2002,04,03,01,22,3.20
2002,04,03,01,23,3.20
2002,04,03,01,24,3.10
2002,04,03,01,25,3.10
2002,04,03,01,26,3.10
2002,04,03,01,27,3.10
2002,04,03,01,28,3.10
2002,04,03,01,29,3.00
2002,04,03,01,30,2.90
2002,04,03,01,31,2.90
2002,04,03,01,32,2.90
2002,04,03,01,33,2.90
2002,04,03,01,34,2.90
2002,04,03,01,35,2.90
2002,04,03,01,36,2.90
2002,04,03,01,37,2.90
2002,04,03,01,38,2.90
2002,04,03,01,39,2.90
2002,04,03,01,40,3.00
2002,04,03,01,41,3.10
2002,04,03,01,42,3.10
2002,04,03,01,43,3.20
2002,04,03,01,44,3.20
2002,04,03,01,45,3.30
2002,04,03,01,46,3.30
2002,04,03,01,47,3.30
2002,04,03,01,48,3.30
2002,04,03,01,49,3.30
2002,04,03,01,50,3.20
2002,04,03,01,51,3.20
2002,04,03,01,52,3.30
2002,04,03,01,53,3.30
2002,04,03,01,54,3.30
2002,04,03,01,55,3.30
2002,04,03,01,56,3.30
2002,04,03,01,57,3.40
2002,04,03,01,58,3.50
2002,04,03,01,59,3.50
2002,04,03,02,00,3.60
2002,04,03,02,01,3.50
2002,04,03,02,02,3.50
2002,04,03,02,03,3.50
2002,04,03,02,04,3.50
2002,04,03,02,05,3.40
2002,04,03,02,06,3.40
2002,04,03,02,07,3.30
2002,04,03,02,08,3.30
2002,04,03,02,09,3.30
2002,04,03,02,10,3.30
2002,04,03,02,11,3.30
2002,04,03,02,12,3.30
2002,04,03,02,13,3.20
2002,04,03,02,14,3.20
2002,04,03,02,15,3.10
2002,04,03,02,16,3.10
2002,04,03,02,17,3.10
2002,04,03,02,18,3.10
2002,04,03,02,19,3.10
2002,04,03,02,20,3.00
2002,04,03,02,21,2.90
2002,04,03,02,22,2.90
2002,04,03,02,23,2.90
2002,04,03,02,24,2.90
2002,04,03,02,25,2.90
2002,04,03,02,26,2.90
2002,04,03,02,27,2.80
2002,04,03,02,28,2.80
2002,04,03,02,29,2.70
2002,04,03,02,30,2.70
2002,04,03,02,31,2.70
2002,04,03,02,32,2.70
2002,04,03,02,33,2.60
2002,04,03,02,34,2.60
2002,04,03,02,35,2.60
2002,04,03,02,36,2.60
2002,04,03,02,37,2.60
2002,04,03,02,38,2.60
2002,04,03,02,39,2.70
2002,04,03,02,40,2.60
2002,04,03,02,41,2.60
2002,04,03,02,42,2.70
2002,04,03,02,43,2.70
2002,04,03,02,44,2.70
2002,04,03,02,45,2.70
2002,04,03,02,46,2.70
2002,04,03,02,47,2.70
2002,04,03,02,48,2.70
2002,04,03,02,49,2.60
2002,04,03,02,50,2.60
2002,04,03,02,51,2.60
2002,04,03,02,52,2.60
2002,04,03,02,53,2.60
2002,04,03,02,54,2.60
2002,04,03,02,55,2.60
2002,04,03,02,56,2.50
2002,04,03,02,57,2.50
2002,04,03,02,58,2.50
2002,04,03,02,59,2.50
2002,04,03,03,00,2.50
2002,04,03,03,01,2.40
2002,04,03,03,02,2.40
2002,04,03,03,03,2.40
2002,04,03,03,04,2.40
2002,04,03,03,05,2.30
2002,04,03,03,06,2.30
2002,04,03,03,07,2.30
2002,04,03,03,08,2.30
2002,04,03,03,09,2.30
2002,04,03,03,10,2.30
2002,04,03,03,11,2.30
2002,04,03,03,12,2.30
2002,04,03,03,13,2.20
2002,04,03,03,14,2.20
2002,04,03,03,15,2.20
2002,04,03,03,16,2.20
2002,04,03,03,17,2.20
2002,04,03,03,18,2.20
2002,04,03,03,19,2.30
2002,04,03,03,20,2.50
2002,04,03,03,21,2.60
2002,04,03,03,22,2.70
2002,04,03,03,23,2.70
2002,04,03,03,24,2.80
2002,04,03,03,25,2.90
2002,04,03,03,26,3.10
2002,04,03,03,27,3.20
2002,04,03,03,28,3.20
2002,04,03,03,29,3.20
2002,04,03,03,30,3.10
2002,04,03,03,31,3.00
2002,04,03,03,32,2.90
2002,04,03,03,33,2.70
2002,04,03,03,34,2.70
2002,04,03,03,35,2.60
2002,04,03,03,36,2.50
2002,04,03,03,37,2.50
2002,04,03,03,38,2.50
2002,04,03,03,39,2.40
2002,04,03,03,40,2.40
2002,04,03,03,41,2.40
2002,04,03,03,42,2.30
2002,04,03,03,43,2.30
2002,04,03,03,44,2.30
2002,04,03,03,45,2.20
2002,04,03,03,46,2.20
2002,04,03,03,47,2.20
2002,04,03,03,48,2.20
2002,04,03,03,49,2.20
2002,04,03,03,50,2.10
2002,04,03,03,51,2.10
2002,04,03,03,52,2.00
2002,04,03,03,53,2.00
2002,04,03,03,54,1.90
2002,04,03,03,55,1.90
2002,04,03,03,56,1.90
2002,04,03,03,57,1.90
2002,04,03,03,58,1.90
2002,04,03,03,59,1.90
2002,04,03,04,00,1.90
2002,04,03,04,01,1.90
2002,04,03,04,02,1.90
2002,04,03,04,03,1.90
2002,04,03,04,04,1.90
2002,04,03,04,05,1.80
2002,04,03,04,06,1.80
2002,04,03,04,07,1.80
2002,04,03,04,08,1.80
2002,04,03,04,09,1.80
2002,04,03,04,10,1.80
2002,04,03,04,11,1.80
2002,04,03,04,12,1.80
2002,04,03,04,13,1.80
2002,04,03,04,14,1.80
2002,04,03,04,15,1.80
2002,04,03,04,16,1.80
2002,04,03,04,17,1.70
2002,04,03,04,18,1.80
2002,04,03,04,19,1.80
2002,04,03,04,20,1.80
2002,04,03,04,21,1.80
2002,04,03,04,22,1.80
2002,04,03,04,23,1.80
2002,04,03,04,24,1.80
2002,04,03,04,25,1.80
2002,04,03,04,26,1.80
2002,04,03,04,27,1.80
2002,04,03,04,28,1.80
2002,04,03,04,29,1.80
2002,04,03,04,30,1.80
2002,04,03,04,31,1.80
2002,04,03,04,32,1.80
2002,04,03,04,33,1.80
2002,04,03,04,34,1.80
2002,04,03,04,35,1.80
2002,04,03,04,36,1.70
2002,04,03,04,37,1.70
2002,04,03,04,38,1.70
2002,04,03,04,39,1.70
2002,04,03,04,40,1.60
2002,04,03,04,41,1.60
2002,04,03,04,42,1.60
2002,04,03,04,43,1.60
2002,04,03,04,44,1.60
2002,04,03,04,45,1.50
2002,04,03,04,46,1.50
2002,04,03,04,47,1.50
2002,04,03,04,48,1.50
2002,04,03,04,49,1.40
2002,04,03,04,50,1.40
2002,04,03,04,51,1.40
2002,04,03,04,52,1.40
2002,04,03,04,53,1.40
2002,04,03,04,54,1.40
2002,04,03,04,55,1.40
2002,04,03,04,56,1.30
2002,04,03,04,57,1.40
2002,04,03,04,58,1.40
2002,04,03,04,59,1.40
2002,04,03,05,00,1.50
2002,04,03,05,01,1.50
2002,04,03,05,02,1.50
2002,04,03,05,03,1.60
2002,04,03,05,04,1.80
2002,04,03,05,05,2.00
2002,04,03,05,06,2.10
2002,04,03,05,07,2.10
2002,04,03,05,08,2.20
2002,04,03,05,09,2.30
2002,04,03,05,10,2.40
2002,04,03,05,11,2.50
2002,04,03,05,12,2.60
2002,04,03,05,13,2.70
2002,04,03,05,14,2.70
2002,04,03,05,15,2.70
2002,04,03,05,16,2.60
2002,04,03,05,17,2.50
2002,04,03,05,18,2.50
2002,04,03,05,19,2.50
2002,04,03,05,20,2.40
2002,04,03,05,21,2.40
2002,04,03,05,22,2.30
2002,04,03,05,23,2.30
2002,04,03,05,24,2.20
2002,04,03,05,25,2.20
2002,04,03,05,26,2.10
2002,04,03,05,27,2.10
2002,04,03,05,28,2.00
2002,04,03,05,29,2.00
2002,04,03,05,30,2.00
2002,04,03,05,31,2.10
2002,04,03,05,32,2.00
2002,04,03,05,33,2.00
2002,04,03,05,34,2.00
2002,04,03,05,35,1.90
2002,04,03,05,36,1.80
2002,04,03,05,37,1.80
2002,04,03,05,38,1.80
2002,04,03,05,39,1.70
2002,04,03,05,40,1.70
2002,04,03,05,41,1.60
2002,04,03,05,42,1.60
2002,04,03,05,43,1.60
2002,04,03,05,44,1.50
2002,04,03,05,45,1.50
2002,04,03,05,46,1.40
2002,04,03,05,47,1.40
2002,04,03,05,48,1.40
2002,04,03,05,49,1.40
2002,04,03,05,50,1.40
2002,04,03,05,51,1.40
2002,04,03,05,52,1.40
2002,04,03,05,53,1.50
2002,04,03,05,54,1.50
2002,04,03,05,55,1.60
2002,04,03,05,56,1.60
2002,04,03,05,57,1.70
2002,04,03,05,58,1.80
2002,04,03,05,59,1.80
2002,04,03,06,00,1.90
2002,04,03,06,01,1.90
2002,04,03,06,02,1.90
2002,04,03,06,03,1.90
2002,04,03,06,04,2.00
2002,04,03,06,05,2.00
2002,04,03,06,06,2.00
2002,04,03,06,07,2.00
2002,04,03,06,08,2.10
2002,04,03,06,09,2.10
2002,04,03,06,10,2.10
2002,04,03,06,11,2.10
2002,04,03,06,12,2.20
2002,04,03,06,13,2.20
2002,04,03,06,14,2.20
2002,04,03,06,15,2.20
2002,04,03,06,16,2.20
2002,04,03,06,17,2.20
2002,04,03,06,18,2.20
2002,04,03,06,19,2.30
2002,04,03,06,20,2.30
2002,04,03,06,21,2.40
2002,04,03,06,22,2.40
2002,04,03,06,23,2.40
2002,04,03,06,24,2.50
2002,04,03,06,25,2.50
2002,04,03,06,26,2.70
2002,04,03,06,27,2.70
2002,04,03,06,28,2.70
2002,04,03,06,29,2.80
2002,04,03,06,30,2.80
2002,04,03,06,31,2.80
2002,04,03,06,32,2.80
2002,04,03,06,33,2.80
2002,04,03,06,34,2.80
2002,04,03,06,35,2.90
2002,04,03,06,36,2.90
2002,04,03,06,37,3.00
2002,04,03,06,38,3.10
2002,04,03,06,39,3.10
2002,04,03,06,40,3.30
2002,04,03,06,41,3.40
2002,04,03,06,42,3.50
2002,04,03,06,43,3.70
2002,04,03,06,44,3.80
2002,04,03,06,45,3.90
2002,04,03,06,46,3.90
2002,04,03,06,47,4.00
2002,04,03,06,48,4.00
2002,04,03,06,49,4.10
2002,04,03,06,50,4.10
2002,04,03,06,51,4.20
2002,04,03,06,52,4.20
2002,04,03,06,53,4.30
2002,04,03,06,54,4.40
2002,04,03,06,55,4.60
2002,04,03,06,56,4.80
2002,04,03,06,57,5.00
2002,04,03,06,58,5.10
2002,04,03,06,59,5.30
2002,04,03,07,00,5.40
2002,04,03,07,01,5.50
2002,04,03,07,02,5.50
2002,04,03,07,03,5.60
2002,04,03,07,04,5.60
2002,04,03,07,05,5.70
2002,04,03,07,06,5.70
2002,04,03,07,07,5.70
2002,04,03,07,08,5.70
2002,04,03,07,09,5.80
2002,04,03,07,10,5.90
2002,04,03,07,11,6.00
2002,04,03,07,12,6.10
2002,04,03,07,13,6.20
2002,04,03,07,14,6.30
2002,04,03,07,15,6.30
2002,04,03,07,16,6.50
2002,04,03,07,17,6.60
2002,04,03,07,18,6.70
2002,04,03,07,19,6.80
2002,04,03,07,20,6.90
2002,04,03,07,21,7.00
2002,04,03,07,22,7.00
2002,04,03,07,23,7.00
2002,04,03,07,24,7.10
2002,04,03,07,25,7.10
2002,04,03,07,26,7.20
2002,04,03,07,27,7.20
2002,04,03,07,28,7.10
2002,04,03,07,29,7.10
2002,04,03,07,30,7.10
2002,04,03,07,31,7.10
2002,04,03,07,32,7.10
2002,04,03,07,33,7.10
2002,04,03,07,34,7.10
2002,04,03,07,35,7.20
2002,04,03,07,36,7.20
2002,04,03,07,37,7.30
2002,04,03,07,38,7.30
2002,04,03,07,39,7.30
2002,04,03,07,40,7.40
2002,04,03,07,41,7.40
2002,04,03,07,42,7.40
2002,04,03,07,43,7.40
2002,04,03,07,44,7.50
2002,04,03,07,45,7.50
2002,04,03,07,46,7.50
2002,04,03,07,47,7.50
2002,04,03,07,48,7.50
2002,04,03,07,49,7.50
2002,04,03,07,50,7.50
2002,04,03,07,51,7.50
2002,04,03,07,52,7.50
2002,04,03,07,53,7.40
2002,04,03,07,54,7.50
2002,04,03,07,55,7.50
2002,04,03,07,56,7.50
2002,04,03,07,57,7.50
2002,04,03,07,58,7.40
2002,04,03,07,59,7.40
2002,04,03,08,00,7.50
2002,04,03,08,01,7.50
2002,04,03,08,02,7.50
2002,04,03,08,03,7.50
2002,04,03,08,04,7.60
2002,04,03,08,05,7.60
2002,04,03,08,06,7.50
2002,04,03,08,07,7.50
2002,04,03,08,08,7.40
2002,04,03,08,09,7.40
2002,04,03,08,10,7.40
2002,04,03,08,11,7.40
2002,04,03,08,12,7.40
2002,04,03,08,13,7.40
2002,04,03,08,14,7.40
2002,04,03,08,15,7.50
2002,04,03,08,16,7.50
2002,04,03,08,17,7.50
2002,04,03,08,18,7.50
2002,04,03,08,19,7.50
2002,04,03,08,20,7.60
2002,04,03,08,21,7.60
2002,04,03,08,22,7.70
2002,04,03,08,23,7.80
2002,04,03,08,24,7.80
2002,04,03,08,25,7.80
2002,04,03,08,26,7.80
2002,04,03,08,27,7.80
2002,04,03,08,28,7.80
2002,04,03,08,29,8.00
2002,04,03,08,30,8.00
2002,04,03,08,31,8.00
2002,04,03,08,32,8.00
2002,04,03,08,33,8.10
2002,04,03,08,34,8.10
2002,04,03,08,35,8.10
2002,04,03,08,36,8.10
2002,04,03,08,37,8.10
2002,04,03,08,38,8.20
2002,04,03,08,39,8.30
2002,04,03,08,40,8.30
2002,04,03,08,41,8.30
2002,04,03,08,42,8.20
2002,04,03,08,43,8.20
2002,04,03,08,44,8.20
2002,04,03,08,45,8.20
2002,04,03,08,46,8.20
2002,04,03,08,47,8.30
2002,04,03,08,48,8.40
2002,04,03,08,49,8.40
2002,04,03,08,50,8.40
2002,04,03,08,51,8.50
2002,04,03,08,52,8.60
2002,04,03,08,53,8.60
2002,04,03,08,54,8.60
2002,04,03,08,55,8.50
2002,04,03,08,56,8.50
2002,04,03,08,57,8.50
2002,04,03,08,58,8.60
2002,04,03,08,59,8.60
2002,04,03,09,00,8.60
2002,04,03,09,01,8.60
2002,04,03,09,02,8.70
2002,04,03,09,03,8.70
2002,04,03,09,04,8.70
2002,04,03,09,05,8.70
2002,04,03,09,06,8.70
2002,04,03,09,07,8.70
2002,04,03,09,08,8.70
2002,04,03,09,09,8.70
2002,04,03,09,10,8.80
2002,04,03,09,11,8.90
2002,04,03,09,12,8.90
2002,04,03,09,13,8.90
2002,04,03,09,14,8.90
2002,04,03,09,15,9.10
2002,04,03,09,16,9.10
2002,04,03,09,17,9.10
2002,04,03,09,18,9.20
2002,04,03,09,19,9.30
2002,04,03,09,20,9.30
2002,04,03,09,21,9.30
2002,04,03,09,22,9.40
2002,04,03,09,23,9.60
2002,04,03,09,24,9.70
2002,04,03,09,25,9.70
2002,04,03,09,26,9.60
2002,04,03,09,27,9.60
2002,04,03,09,28,9.50
2002,04,03,09,29,9.50
2002,04,03,09,30,9.40
2002,04,03,09,31,9.40
2002,04,03,09,32,9.40
2002,04,03,09,33,9.50
2002,04,03,09,34,9.50
2002,04,03,09,35,9.50
2002,04,03,09,36,9.40
2002,04,03,09,37,9.40
2002,04,03,09,38,9.40
2002,04,03,09,39,9.30
2002,04,03,09,40,9.30
2002,04,03,09,41,9.30
2002,04,03,09,42,9.30
2002,04,03,09,43,9.40
2002,04,03,09,44,9.40
2002,04,03,09,45,9.40
2002,04,03,09,46,9.40
2002,04,03,09,47,9.30
2002,04,03,09,48,9.30
2002,04,03,09,49,9.40
2002,04,03,09,50,9.40
2002,04,03,09,51,9.50
2002,04,03,09,52,9.60
2002,04,03,09,53,9.50
2002,04,03,09,54,9.40
2002,04,03,09,55,9.40
2002,04,03,09,56,9.50
2002,04,03,09,57,9.50
2002,04,03,09,58,9.50
2002,04,03,09,59,9.50
2002,04,03,10,00,9.50
2002,04,03,10,01,9.50
2002,04,03,10,02,9.60
2002,04,03,10,03,9.60
2002,04,03,10,04,9.70
2002,04,03,10,05,9.70
2002,04,03,10,06,9.70
2002,04,03,10,07,9.80
2002,04,03,10,08,9.80
2002,04,03,10,09,9.80
2002,04,03,10,10,9.90
2002,04,03,10,11,9.90
2002,04,03,10,12,10.00
2002,04,03,10,13,10.10
2002,04,03,10,14,10.10
2002,04,03,10,15,10.10
2002,04,03,10,16,10.10
2002,04,03,10,17,10.10
2002,04,03,10,18,10.00
2002,04,03,10,19,9.90
2002,04,03,10,20,9.90
2002,04,03,10,21,9.80
2002,04,03,10,22,9.90
2002,04,03,10,23,10.00
2002,04,03,10,24,10.20
2002,04,03,10,25,10.30
2002,04,03,10,26,10.40
2002,04,03,10,27,10.40
2002,04,03,10,28,10.30
2002,04,03,10,29,10.30
2002,04,03,10,30,10.30
2002,04,03,10,31,10.20
2002,04,03,10,32,10.20
2002,04,03,10,33,10.20
2002,04,03,10,34,10.10
2002,04,03,10,35,10.10
2002,04,03,10,36,10.10
2002,04,03,10,37,10.00
2002,04,03,10,38,9.90
2002,04,03,10,39,9.90
2002,04,03,10,40,10.00
2002,04,03,10,41,10.10
2002,04,03,10,42,10.20
2002,04,03,10,43,10.30
2002,04,03,10,44,10.40
2002,04,03,10,45,10.40
2002,04,03,10,46,10.40
2002,04,03,10,47,10.40
2002,04,03,10,48,10.40
2002,04,03,10,49,10.40
2002,04,03,10,50,10.40
2002,04,03,10,51,10.40
2002,04,03,10,52,10.40
2002,04,03,10,53,10.40
2002,04,03,10,54,10.40
2002,04,03,10,55,10.40
2002,04,03,10,56,10.50
2002,04,03,10,57,10.60
2002,04,03,10,58,10.60
2002,04,03,10,59,10.60
2002,04,03,11,00,10.60
2002,04,03,11,01,10.70
2002,04,03,11,02,10.70
2002,04,03,11,03,10.70
2002,04,03,11,04,10.80
2002,04,03,11,05,10.90
2002,04,03,11,06,10.90
2002,04,03,11,07,10.90
2002,04,03,11,08,10.80
2002,04,03,11,09,10.80
2002,04,03,11,10,10.80
2002,04,03,11,11,10.70
2002,04,03,11,12,10.70
2002,04,03,11,13,10.70
2002,04,03,11,14,10.70
2002,04,03,11,15,10.80
2002,04,03,11,16,10.80
2002,04,03,11,17,10.80
2002,04,03,11,18,10.70
2002,04,03,11,19,10.70
2002,04,03,11,20,10.80
2002,04,03,11,21,10.90
2002,04,03,11,22,10.90
2002,04,03,11,23,10.90
2002,04,03,11,24,10.90
2002,04,03,11,25,10.90
2002,04,03,11,26,10.90
2002,04,03,11,27,11.00
2002,04,03,11,28,11.10
2002,04,03,11,29,11.10
2002,04,03,11,30,11.10
2002,04,03,11,31,11.10
2002,04,03,11,32,11.10
2002,04,03,11,33,11.10
2002,04,03,11,34,11.10
2002,04,03,11,35,11.10
2002,04,03,11,36,11.10
2002,04,03,11,37,11.10
2002,04,03,11,38,11.20
2002,04,03,11,39,11.20
2002,04,03,11,40,11.20
2002,04,03,11,41,11.30
2002,04,03,11,42,11.40
2002,04,03,11,43,11.40
2002,04,03,11,44,11.30
2002,04,03,11,45,11.30
2002,04,03,11,46,11.30
2002,04,03,11,47,11.20
2002,04,03,11,48,11.10
2002,04,03,11,49,11.10
2002,04,03,11,50,11.10
2002,04,03,11,51,11.10
2002,04,03,11,52,11.10
2002,04,03,11,53,11.00
2002,04,03,11,54,10.90
2002,04,03,11,55,10.90
2002,04,03,11,56,10.90
2002,04,03,11,57,10.90
2002,04,03,11,58,11.00
2002,04,03,11,59,11.10
2002,04,03,12,00,11.10
2002,04,03,12,01,11.10
2002,04,03,12,02,11.00
2002,04,03,12,03,10.90
2002,04,03,12,04,10.80
2002,04,03,12,05,10.90
2002,04,03,12,06,10.90
2002,04,03,12,07,10.90
2002,04,03,12,08,10.90
2002,04,03,12,09,10.90
2002,04,03,12,10,11.00
2002,04,03,12,11,11.10
2002,04,03,12,12,11.10
2002,04,03,12,13,11.20
2002,04,03,12,14,11.30
2002,04,03,12,15,11.30
2002,04,03,12,16,11.30
2002,04,03,12,17,11.20
2002,04,03,12,18,11.10
2002,04,03,12,19,11.10
2002,04,03,12,20,11.20
2002,04,03,12,21,11.20
2002,04,03,12,22,11.40
2002,04,03,12,23,11.60
2002,04,03,12,24,11.60
2002,04,03,12,25,11.80
2002,04,03,12,26,11.80
2002,04,03,12,27,11.90
2002,04,03,12,28,11.90
2002,04,03,12,29,12.00
2002,04,03,12,30,12.00
2002,04,03,12,31,12.00
2002,04,03,12,32,11.90
2002,04,03,12,33,11.80
2002,04,03,12,34,11.80
2002,04,03,12,35,11.80
2002,04,03,12,36,11.80
2002,04,03,12,37,11.80
2002,04,03,12,38,11.70
2002,04,03,12,39,11.70
2002,04,03,12,40,11.80
2002,04,03,12,41,11.80
2002,04,03,12,42,11.90
2002,04,03,12,43,12.00
2002,04,03,12,44,12.00
2002,04,03,12,45,12.00
2002,04,03,12,46,12.10
2002,04,03,12,47,12.20
2002,04,03,12,48,12.20
2002,04,03,12,49,12.30
2002,04,03,12,50,12.40
2002,04,03,12,51,12.40
2002,04,03,12,52,12.40
2002,04,03,12,53,12.40
2002,04,03,12,54,12.40
2002,04,03,12,55,12.30
2002,04,03,12,56,12.20
2002,04,03,12,57,12.20
2002,04,03,12,58,12.10
2002,04,03,12,59,12.20
2002,04,03,13,00,12.10
2002,04,03,13,01,12.20
2002,04,03,13,02,12.30
2002,04,03,15,15,12.80
2002,04,03,15,16,12.80
2002,04,03,15,17,12.90
2002,04,03,15,18,12.90
2002,04,03,15,19,12.90
2002,04,03,15,20,12.90
2002,04,03,15,21,12.90
2002,04,03,15,22,12.80
2002,04,03,15,23,12.70
2002,04,03,15,24,12.80
2002,04,03,15,25,12.80
2002,04,03,15,26,12.80
2002,04,03,15,27,12.80
2002,04,03,15,28,12.70
2002,04,03,15,29,12.70
2002,04,03,15,30,12.80
2002,04,03,15,31,12.80
2002,04,03,15,32,12.80
2002,04,03,15,33,12.90
2002,04,03,15,34,12.90
2002,04,03,15,35,12.90
2002,04,03,15,36,13.00
2002,04,03,15,37,13.10
2002,04,03,15,38,13.10
2002,04,03,15,39,13.20
2002,04,03,15,40,13.20
2002,04,03,15,41,13.30
2002,04,03,15,42,13.20
2002,04,03,15,43,13.20
2002,04,03,15,44,13.10
2002,04,03,15,45,13.00
2002,04,03,15,46,13.00
2002,04,03,15,47,13.00
2002,04,03,15,48,13.00
2002,04,03,15,49,12.90
2002,04,03,15,50,12.80
2002,04,03,15,51,12.80
2002,04,03,15,52,12.90
2002,04,03,15,53,13.00
2002,04,03,15,54,13.00
2002,04,03,15,55,13.00
2002,04,03,15,56,13.00
2002,04,03,15,57,13.10
2002,04,03,15,58,13.30
2002,04,03,15,59,13.40
2002,04,03,16,00,13.40
2002,04,03,16,01,13.40
2002,04,03,16,02,13.40
2002,04,03,16,03,13.30
2002,04,03,16,04,13.20
2002,04,03,16,05,13.20
2002,04,03,16,06,13.30
2002,04,03,16,07,13.20
2002,04,03,16,08,13.20
2002,04,03,16,09,13.10
2002,04,03,16,10,13.10
2002,04,03,16,11,13.10
2002,04,03,16,12,13.10
2002,04,03,16,13,13.10
2002,04,03,16,14,13.10
2002,04,03,16,15,13.10
2002,04,03,16,16,13.10
2002,04,03,16,17,13.20
2002,04,03,16,18,13.20
2002,04,03,16,19,13.20
2002,04,03,16,20,13.20
2002,04,03,16,21,13.20
2002,04,03,16,22,13.30
2002,04,03,16,23,13.30
2002,04,03,16,24,13.40
2002,04,03,16,25,13.40
2002,04,03,16,26,13.40
2002,04,03,16,27,13.60
2002,04,03,16,28,13.70
2002,04,03,16,29,13.80
2002,04,03,16,30,13.90
2002,04,03,16,31,13.90
2002,04,03,16,32,13.90
2002,04,03,16,33,13.80
2002,04,03,16,34,13.80
2002,04,03,16,35,13.80
2002,04,03,16,36,13.80
2002,04,03,16,37,13.80
2002,04,03,16,38,13.80
2002,04,03,16,39,13.80
2002,04,03,16,40,13.80
2002,04,03,16,41,13.70
2002,04,03,16,42,13.70
2002,04,03,16,43,13.70
2002,04,03,16,44,13.90
2002,04,03,16,45,13.90
2002,04,03,16,46,13.90
2002,04,03,16,47,13.90
2002,04,03,16,48,14.00
2002,04,03,16,49,14.00
2002,04,03,16,50,14.00
2002,04,03,16,51,14.10
2002,04,03,16,52,14.10
2002,04,03,16,53,14.20
2002,04,03,16,54,14.30
2002,04,03,16,55,14.40
2002,04,03,16,56,14.50
2002,04,03,16,57,14.50
2002,04,03,16,58,14.70
2002,04,03,16,59,14.80
2002,04,03,17,00,14.80
2002,04,03,17,01,14.90
2002,04,03,17,02,15.00
2002,04,03,17,03,15.00
2002,04,03,17,04,15.00
2002,04,03,17,05,14.90
2002,04,03,17,06,14.70
2002,04,03,17,07,14.50
2002,04,03,17,08,14.30
2002,04,03,17,09,14.10
2002,04,03,17,10,13.90
2002,04,03,17,11,13.80
2002,04,03,17,12,13.70
2002,04,03,17,13,13.70
2002,04,03,17,14,13.80
2002,04,03,17,15,13.90
2002,04,03,17,16,13.80
2002,04,03,17,17,13.80
2002,04,03,17,18,13.80
2002,04,03,17,19,13.80
2002,04,03,17,20,13.90
2002,04,03,17,21,14.00
2002,04,03,17,22,14.10
2002,04,03,17,23,14.10
2002,04,03,17,24,14.10
2002,04,03,17,25,14.10
2002,04,03,17,26,14.20
2002,04,03,17,27,14.20
2002,04,03,17,28,14.20
2002,04,03,17,29,14.30
2002,04,03,17,30,14.40
2002,04,03,17,31,14.40
2002,04,03,17,32,14.40
2002,04,03,17,33,14.40
2002,04,03,17,34,14.40
2002,04,03,17,35,14.50
2002,04,03,17,36,14.50
2002,04,03,17,37,14.50
2002,04,03,17,38,14.50
2002,04,03,17,39,14.50
2002,04,03,17,40,14.50
2002,04,03,17,41,14.50
2002,04,03,17,42,14.50
2002,04,03,17,43,14.50
2002,04,03,17,44,14.50
2002,04,03,17,45,14.50
2002,04,03,17,46,14.50
2002,04,03,17,47,14.50
2002,04,03,17,48,14.40
2002,04,03,17,49,14.40
2002,04,03,17,50,14.30
2002,04,03,17,51,14.20
2002,04,03,17,52,14.20
2002,04,03,17,53,14.10
2002,04,03,17,54,14.20
2002,04,03,17,55,14.10
2002,04,03,17,56,14.10
2002,04,03,17,57,14.00
2002,04,03,17,58,14.00
2002,04,03,17,59,14.00
2002,04,03,18,00,14.00
2002,04,03,18,01,13.90
2002,04,03,18,02,13.90
2002,04,03,18,03,13.90
2002,04,03,18,04,13.80
2002,04,03,18,05,13.80
2002,04,03,18,06,13.70
2002,04,03,18,07,13.70
2002,04,03,18,08,13.70
2002,04,03,18,09,13.70
2002,04,03,18,10,13.70
2002,04,03,18,11,13.70
2002,04,03,18,12,13.70
2002,04,03,18,13,13.70
2002,04,03,18,14,13.70
2002,04,03,18,15,13.70
2002,04,03,18,16,13.70
2002,04,03,18,17,13.70
2002,04,03,18,18,13.70
2002,04,03,18,19,13.60
2002,04,03,18,20,13.60
2002,04,03,18,21,13.60
2002,04,03,18,22,13.50
2002,04,03,18,23,13.50
2002,04,03,18,24,13.50
2002,04,03,18,25,13.40
2002,04,03,18,26,13.40
2002,04,03,18,27,13.30
2002,04,03,18,28,13.30
2002,04,03,18,29,13.20
2002,04,03,18,30,13.10
2002,04,03,18,31,13.10
2002,04,03,18,32,13.00
2002,04,03,18,33,12.90
2002,04,03,18,34,12.90
2002,04,03,18,35,12.90
2002,04,03,18,36,12.80
2002,04,03,18,37,12.80
2002,04,03,18,38,12.70
2002,04,03,18,39,12.70
2002,04,03,18,40,12.70
2002,04,03,18,41,12.60
2002,04,03,18,42,12.60
2002,04,03,18,43,12.60
2002,04,03,18,44,12.60
2002,04,03,18,45,12.50
2002,04,03,18,46,12.40
2002,04,03,18,47,12.40
2002,04,03,18,48,12.30
2002,04,03,18,49,12.30
2002,04,03,18,50,12.30
2002,04,03,18,51,12.30
2002,04,03,18,52,12.30
2002,04,03,18,53,12.30
2002,04,03,18,54,12.30
2002,04,03,18,55,12.30
2002,04,03,18,56,12.30
2002,04,03,18,57,12.30
2002,04,03,18,58,12.30
2002,04,03,18,59,12.30
2002,04,03,19,00,12.30
2002,04,03,19,01,12.30
2002,04,03,19,02,12.30
2002,04,03,19,03,12.30
2002,04,03,19,04,12.30
2002,04,03,19,05,12.30
2002,04,03,19,06,12.30
2002,04,03,19,07,12.30
2002,04,03,19,08,12.30
2002,04,03,19,09,12.30
2002,04,03,19,10,12.30
2002,04,03,19,11,12.30
2002,04,03,19,12,12.30
2002,04,03,19,13,12.30
2002,04,03,19,14,12.30
2002,04,03,19,15,12.30
2002,04,03,19,16,12.30
2002,04,03,19,17,12.20
2002,04,03,19,18,12.20
2002,04,03,19,19,12.20
2002,04,03,19,20,12.10
2002,04,03,19,21,12.10
2002,04,03,19,22,12.00
2002,04,03,19,23,12.00
2002,04,03,19,24,11.90
2002,04,03,19,25,11.90
2002,04,03,19,26,11.80
2002,04,03,19,27,11.80
2002,04,03,19,28,11.80
2002,04,03,19,29,11.70
2002,04,03,19,30,11.60
2002,04,03,19,31,11.50
2002,04,03,19,32,11.40
2002,04,03,19,33,11.40
2002,04,03,19,34,11.30
2002,04,03,19,35,11.20
2002,04,03,19,36,11.20
2002,04,03,19,37,11.10
2002,04,03,19,38,11.10
2002,04,03,19,39,11.00
2002,04,03,19,40,10.90
2002,04,03,19,41,10.90
2002,04,03,19,42,10.80
2002,04,03,19,43,10.80
2002,04,03,19,44,10.70
2002,04,03,19,45,10.70
2002,04,03,19,46,10.70
2002,04,03,19,47,10.60
2002,04,03,19,48,10.70
2002,04,03,19,49,10.70
2002,04,03,19,50,10.60
2002,04,03,19,51,10.60
2002,04,03,19,52,10.60
2002,04,03,19,53,10.60
2002,04,03,19,54,10.60
2002,04,03,19,55,10.40
2002,04,03,19,56,10.40
2002,04,03,19,57,10.40
2002,04,03,19,58,10.40